Hourly Data Report for January 23, 2003

SHERBROOKE A
QUEBEC

45°26'00.000" N
71°41'00.000" W
241.40 m
7028124
71610
YSC

Download Data

Hourly Data (January 2003)
Hourly Data Report for January 23, 2003
TIME
LST
Temp Definition
°C
Dew Point Definition
°C
Rel Hum Definition
%
Precip. Amount Definition
mm

Wind Dir Definition
10's deg

Wind Spd Definition
km/h
Visibility Definition
km
Stn Press Definition
kPa
Hmdx Definition


Wind Chill Definition


Weather Definition


00:00 -22.3 -29.2 53   26 17 15.0 98.06   -33  
01:00 -22.3 -28.9 55   27 22 5.6 98.07   -34 Snow
02:00 -22.8 -29.3 55   26 11 15.0 98.09   -31  
03:00 -22.5 -29.1 55   26 13 15.0 98.10   -31  
04:00 -22.3 -28.9 55   25 15 15.0 98.09   -32  
05:00 -22.2 -28.7 56   26 13 15.0 98.12   -31  
06:00 -22.0 -28.7 55   25 11 15.0 98.13   -30  
07:00 -22.1 -28.7 55   25 11 15.0 98.14   -30  
08:00 -21.8 -28.3 56   26 13 19.3 98.16   -31 Snow
09:00 -21.5 -27.3 59   25 11 2.4 98.17   -29 Snow Showers
10:00 -20.8 -27.1 57   28 19 19.3 98.16   -31 Snow Showers
11:00 -20.1 -26.7 56   27 9 9.7 98.12   -27 Snow Showers
12:00 -19.4 -25.7 57   27 9 4.8 98.04   -26 Snow Showers
13:00 -19.1 -25.4 57   26 13 4.8 98.00   -27 Snow Showers
14:00 -18.5 -25.4 55   27 11 12.9 98.01   -26 Cloudy
15:00 -18.2 -25.0 55   28 15 16.1 98.02   -27 Snow Showers
16:00 -18.1 -24.4 58   28 11 16.1 98.07   -25 Snow Showers
17:00 -18.3 -23.7 63   27 11 9.7 98.12   -26 Snow Showers
18:00 -18.7 -23.8 64   28 9 8.0 98.17   -25  
19:00 -18.5 -23.4 65   26 9 5.6 98.19   -25 Snow
20:00 -18.6 -23.6 65   24 9 4.8 98.19   -25  
21:00 -18.7 -23.6 65   22 6 3.4 98.17   -24  
22:00 -18.7 -23.6 65   23 6 8.0 98.14   -24  
23:00 -19.7 -24.2 67   19 6 15.0 98.18   -25  

Notes on Data Quality.

Legend

  • E = Estimated
  • M = Missing
  • NA = Not Available*
  • [empty] = Indicates an unobserved value
Date modified: